QPF
0.00 0.00 0.00 0.00 0.00 0.00 0.02 0.02 0.02 0.01 0.02 0.03 0.03 0.02 0.04 0.02 0.01 0.01 0.03 0.03 0.02 0.01 0.01 0.01 0.02 0.02 0.01 0.01 0.01 0.01 0.01 0.02 0.02 0.03 0.03 0.03 0.02 0.02 0.04 0.05 0.04 0.04 0.05 0.04
0.00 0.00 0.00 0.00 0.00 0.00 0.01 0.01 0.01 0.01 0.02 0.02 0.03 0.02 0.03 0.02 0.01 0.01 0.02 0.02 0.01 0.02 0.01 0.01 0.01 0.01 0.01 0.01 0.01 0.01 0.01 0.01 0.01 0.01 0.02 0.02 0.02 0.02 0.02 0.04 0.05 0.05 0.06 0.06
0.00 0.00 0.00 0.00 0.00 0.00 0.01 0.01 0.01 0.01 0.01 0.02 0.02 0.02 0.02 0.02 0.02 0.02 0.02 0.02 0.01 0.01 0.01 0.01 0.00 0.01 0.01 0.01 0.01 0.01 0.01 0.02 0.01 0.01 0.01 0.01 0.02 0.03 0.03 0.04 0.06 0.06 0.05 0.06
0.00 0.00 0.00 0.00 0.00 0.00 0.01 0.01 0.01 0.01 0.01 0.01 0.02 0.03 0.03 0.04 0.03 0.02 0.01 0.02 0.02 0.02 0.01 0.01 0.00 0.00 0.00 0.00 0.00 0.00 0.01 0.02 0.02 0.02 0.02 0.02 0.02 0.03 0.02 0.04 0.06 0.08 0.05 0.04
0.00 0.00 0.00 0.00 0.00 0.00 0.00 0.00 0.00 0.01 0.01 0.01 0.02 0.04 0.04 0.05 0.05 0.03 0.02 0.02 0.02 0.01 0.01 0.01 0.00 0.00 0.00 0.00 0.00 0.01 0.01 0.01 0.02 0.02 0.04 0.04 0.04 0.02 0.02 0.03 0.05 0.05 0.05 0.04
0.00 0.00 0.00 0.00 0.00 0.01 0.01 0.01 0.00 0.00 0.00 0.01 0.03 0.03 0.03 0.04 0.06 0.04 0.03 0.04 0.04 0.01 0.01 0.01 0.00 0.00 0.00 0.00 0.00 0.01 0.01 0.02 0.02 0.03 0.05 0.04 0.03 0.02 0.02 0.03 0.03 0.03 0.02 0.04
0.00 0.00 0.00 0.00 0.00 0.00 0.00 0.01 0.00 0.00 0.01 0.01 0.02 0.02 0.02 0.02 0.03 0.02 0.03 0.06 0.03 0.01 0.00 0.00 0.00 0.00 0.00 0.00 0.00 0.01 0.02 0.02 0.03 0.04 0.03 0.03 0.02 0.02 0.03 0.04 0.04 0.03 0.02 0.02
0.00 0.00 0.00 0.00 0.00 0.00 0.01 0.01 0.01 0.01 0.01 0.02 0.02 0.04 0.03 0.02 0.02 0.03 0.04 0.04 0.03 0.01 0.00 0.00 0.00 0.00 0.00 0.01 0.00 0.01 0.01 0.01 0.02 0.02 0.02 0.02 0.02 0.02 0.03 0.04 0.03 0.02 0.02 0.01
0.00 0.01 0.00 0.00 0.01 0.01 0.01 0.01 0.01 0.01 0.01 0.03 0.04 0.04 0.04 0.04 0.04 0.03 0.04 0.05 0.04 0.02 0.01 0.01 0.01 0.01 0.01 0.00 0.00 0.01 0.01 0.01 0.01 0.02 0.02 0.03 0.04 0.04 0.04 0.04 0.03 0.02 0.03 0.03
0.00 0.00 0.01 0.01 0.00 0.01 0.01 0.01 0.01 0.01 0.01 0.02 0.03 0.05 0.08 0.07 0.04 0.04 0.04 0.05 0.04 0.03 0.03 0.02 0.02 0.01 0.00 0.00 0.00 0.01 0.02 0.03 0.03 0.04 0.04 0.05 0.05 0.05 0.04 0.02 0.02 0.02 0.01 0.02
0.00 0.00 0.01 0.01 0.01 0.01 0.01 0.01 0.01 0.02 0.02 0.02 0.03 0.05 0.04 0.05 0.04 0.03 0.05 0.06 0.06 0.05 0.05 0.04 0.01 0.01 0.01 0.01 0.02 0.03 0.04 0.06 0.09 0.08 0.08 0.08 0.07 0.09 0.06 0.03 0.02 0.02 0.01 0.02
0.00 0.00 0.00 0.01 0.00 0.01 0.01 0.01 0.01 0.01 0.01 0.02 0.02 0.03 0.02 0.02 0.02 0.02 0.05 0.07 0.06 0.05 0.03 0.03 0.03 0.02 0.01 0.02 0.03 0.04 0.08 0.11 0.10 0.09 0.08 0.09 0.13 0.16 0.09 0.04 0.03 0.03 0.01 0.01
0.00 0.00 0.00 0.00 0.00 0.00 0.00 0.00 0.01 0.01 0.01 0.01 0.02 0.02 0.02 0.01 0.01 0.02 0.03 0.05 0.07 0.07 0.05 0.04 0.05 0.04 0.03 0.04 0.05 0.07 0.07 0.08 0.09 0.09 0.10 0.14 0.15 0.10 0.06 0.04 0.02 0.02 0.01 0.01
0.00 0.00 0.00 0.01 0.01 0.01 0.01 0.01 0.01 0.01 0.01 0.02 0.02 0.02 0.03 0.03 0.04 0.02 0.02 0.02 0.06 0.10 0.07 0.06 0.05 0.04 0.04 0.07 0.09 0.09 0.09 0.10 0.09 0.13 0.16 0.14 0.11 0.07 0.04 0.03 0.03 0.03 0.02 0.03
0.00 0.00 0.00 0.00 0.00 0.00 0.01 0.01 0.01 0.01 0.01 0.01 0.01 0.02 0.02 0.02 0.03 0.05 0.04 0.03 0.05 0.08 0.07 0.05 0.04 0.04 0.04 0.05 0.10 0.14 0.08 0.07 0.08 0.10 0.09 0.08 0.06 0.03 0.02 0.01 0.01 0.02 0.02 0.02
0.00 0.00 0.00 0.00 0.00 0.00 0.01 0.00 0.00 0.00 0.01 0.01 0.01 0.02 0.03 0.02 0.03 0.05 0.04 0.04 0.03 0.03 0.05 0.05 0.05 0.05 0.05 0.03 0.03 0.03 0.03 0.03 0.04 0.04 0.07 0.09 0.07 0.03 0.01 0.01 0.01 0.01 0.02 0.03
0.00 0.00 0.00 0.00 0.00 0.00 0.00 0.00 0.01 0.00 0.00 0.00 0.01 0.02 0.03 0.02 0.03 0.05 0.03 0.02 0.02 0.02 0.03 0.06 0.07 0.07 0.04 0.02 0.01 0.02 0.02 0.04 0.04 0.04 0.04 0.06 0.04 0.02 0.01 0.01 0.00 0.01 0.02 0.03
0.00 0.00 0.00 0.00 0.00 0.00 0.00 0.00 0.01 0.00 0.00 0.01 0.01 0.02 0.04 0.04 0.03 0.05 0.04 0.02 0.02 0.02 0.02 0.04 0.06 0.04 0.03 0.03 0.02 0.03 0.03 0.05 0.05 0.03 0.02 0.02 0.02 0.01 0.01 0.01 0.01 0.01 0.01 0.02
0.00 0.00 0.00 0.00 0.00 0.00 0.00 0.01 0.01 0.01 0.01 0.02 0.02 0.03 0.05 0.07 0.04 0.04 0.04 0.03 0.03 0.03 0.02 0.02 0.03 0.03 0.03 0.04 0.05 0.04 0.04 0.05 0.05 0.04 0.03 0.02 0.02 0.02 0.02 0.02 0.01 0.02 0.02 0.02
0.00 0.00 0.00 0.00 0.00 0.00 0.00 0.00 0.00 0.00 0.01 0.02 0.04 0.03 0.04 0.06 0.07 0.04 0.03 0.03 0.04 0.05 0.04 0.04 0.03 0.03 0.04 0.05 0.06 0.06 0.06 0.05 0.04 0.03 0.03 0.02 0.02 0.03 0.02 0.02 0.02 0.02 0.02 0.02
0.00 0.00 0.00 0.00 0.00 0.01 0.00 0.00 0.00 0.01 0.01 0.02 0.02 0.02 0.03 0.04 0.05 0.03 0.02 0.02 0.04 0.09 0.10 0.09 0.05 0.04 0.05 0.06 0.07 0.07 0.06 0.03 0.02 0.02 0.03 0.03 0.02 0.03 0.03 0.03 0.02 0.02 0.02 0.02
0.01 0.01 0.00 0.00 0.00 0.01 0.00 0.00 0.01 0.01 0.03 0.03 0.02 0.02 0.02 0.03 0.04 0.05 0.04 0.04 0.05 0.06 0.05 0.05 0.05 0.04 0.04 0.05 0.05 0.05 0.03 0.03 0.03 0.03 0.03 0.02 0.03 0.03 0.03 0.02 0.02 0.02 0.02 0.02
0.01 0.01 0.00 0.00 0.01 0.01 0.00 0.00 0.01 0.02 0.06 0.08 0.05 0.03 0.02 0.03 0.05 0.06 0.06 0.06 0.07 0.04 0.02 0.01 0.02 0.02 0.03 0.03 0.03 0.03 0.04 0.05 0.05 0.04 0.03 0.03 0.03 0.04 0.03 0.03 0.02 0.02 0.02 0.02
0.01 0.01 0.01 0.01 0.01 0.01 0.01 0.01 0.01 0.01 0.03 0.03 0.02 0.02 0.02 0.03 0.03 0.05 0.06 0.06 0.07 0.05 0.03 0.02 0.02 0.03 0.04 0.04 0.05 0.08 0.09 0.09 0.06 0.04 0.03 0.03 0.04 0.04 0.03 0.03 0.02 0.02 0.02 0.02
0.02 0.03 0.02 0.03 0.03 0.01 0.01 0.02 0.01 0.01 0.01 0.01 0.01 0.01 0.01 0.01 0.02 0.03 0.06 0.06 0.07 0.09 0.08 0.05 0.04 0.05 0.06 0.05 0.05 0.07 0.09 0.12 0.08 0.05 0.03 0.04 0.04 0.04 0.03 0.04 0.04 0.03 0.02 0.03
0.04 0.07 0.07 0.05 0.03 0.02 0.02 0.04 0.05 0.03 0.02 0.01 0.01 0.01 0.01 0.01 0.01 0.03 0.09 0.12 0.12 0.10 0.07 0.05 0.04 0.05 0.05 0.04 0.03 0.03 0.04 0.04 0.05 0.05 0.05 0.05 0.04 0.03 0.03 0.03 0.03 0.03 0.04 0.04
MSLP
1007.06 1007.90 1008.52 1008.91 1009.12 1009.23 1009.31 1009.45 1009.69 1010.03 1010.46 1010.94 1011.40 1011.82 1012.17 1012.44 1012.67 1012.88 1013.10 1013.33 1013.57 1013.80 1013.98 1014.10 1014.12 1014.05 1013.90 1013.72 1013.55 1013.42 1013.38 1013.43 1013.57 1013.76 1013.96 1014.14 1014.27 1014.34 1014.34 1014.31 1014.27 1014.25 1014.27 1014.36
1007.65 1008.22 1008.55 1008.68 1008.70 1008.70 1008.80 1009.06 1009.51 1010.12 1010.81 1011.51 1012.14 1012.64 1012.99 1013.20 1013.32 1013.40 1013.50 1013.64 1013.83 1014.05 1014.24 1014.37 1014.39 1014.30 1014.12 1013.88 1013.64 1013.45 1013.38 1013.43 1013.60 1013.85 1014.12 1014.37 1014.55 1014.63 1014.61 1014.51 1014.38 1014.25 1014.17 1014.17
1007.99 1008.27 1008.31 1008.20 1008.06 1008.03 1008.20 1008.63 1009.32 1010.20 1011.16 1012.07 1012.83 1013.37 1013.66 1013.75 1013.72 1013.64 1013.59 1013.64 1013.79 1014.00 1014.24 1014.42 1014.50 1014.44 1014.26 1014.00 1013.73 1013.51 1013.42 1013.46 1013.65 1013.95 1014.28 1014.59 1014.82 1014.91 1014.88 1014.73 1014.52 1014.30 1014.13 1014.04
1008.10 1008.11 1007.90 1007.61 1007.38 1007.37 1007.66 1008.31 1009.27 1010.41 1011.60 1012.68 1013.51 1014.02 1014.22 1014.13 1013.89 1013.61 1013.41 1013.35 1013.45 1013.69 1013.99 1014.26 1014.43 1014.46 1014.34 1014.10 1013.83 1013.60 1013.48 1013.52 1013.72 1014.03 1014.40 1014.75 1015.01 1015.12 1015.08 1014.91 1014.65 1014.37 1014.13 1013.97
1008.05 1007.84 1007.45 1007.05 1006.81 1006.87 1007.34 1008.22 1009.42 1010.81 1012.18 1013.36 1014.20 1014.63 1014.65 1014.35 1013.87 1013.37 1012.99 1012.82 1012.89 1013.16 1013.54 1013.94 1014.24 1014.38 1014.35 1014.18 1013.94 1013.70 1013.57 1013.59 1013.77 1014.08 1014.45 1014.82 1015.09 1015.22 1015.18 1015.00 1014.73 1014.42 1014.14 1013.94
1007.92 1007.55 1007.06 1006.63 1006.44 1006.64 1007.29 1008.38 1009.81 1011.37 1012.86 1014.06 1014.84 1015.13 1014.95 1014.41 1013.68 1012.97 1012.42 1012.15 1012.19 1012.50 1012.98 1013.51 1013.95 1014.24 1014.32 1014.23 1014.02 1013.80 1013.65 1013.64 1013.78 1014.06 1014.41 1014.77 1015.04 1015.18 1015.16 1014.99 1014.72 1014.42 1014.13 1013.93
1007.81 1007.35 1006.84 1006.44 1006.35 1006.69 1007.52 1008.79 1010.36 1012.02 1013.53 1014.70 1015.36 1015.47 1015.07 1014.30 1013.35 1012.45 1011.77 1011.42 1011.45 1011.80 1012.38 1013.03 1013.62 1014.03 1014.23 1014.22 1014.07 1013.86 1013.69 1013.64 1013.73 1013.96 1014.28 1014.61 1014.87 1015.02 1015.02 1014.88 1014.64 1014.37 1014.11 1013.93
1007.79 1007.31 1006.83 1006.52 1006.54 1007.01 1007.96 1009.33 1010.96 1012.62 1014.08 1015.14 1015.65 1015.57 1014.98 1014.01 1012.90 1011.86 1011.09 1010.70 1010.74 1011.14 1011.80 1012.55 1013.25 1013.78 1014.08 1014.14 1014.03 1013.84 1013.66 1013.57 1013.62 1013.79 1014.06 1014.36 1014.62 1014.77 1014.79 1014.69 1014.50 1014.28 1014.08 1013.94
1007.91 1007.47 1007.06 1006.85 1006.97 1007.53 1008.54 1009.92 1011.51 1013.08 1014.40 1015.30 1015.63 1015.39 1014.64 1013.56 1012.35 1011.26 1010.46 1010.07 1010.12 1010.57 1011.28 1012.10 1012.86 1013.46 1013.82 1013.94 1013.87 1013.70 1013.51 1013.41 1013.42 1013.56 1013.80 1014.07 1014.31 1014.48 1014.53 1014.47 1014.34 1014.18 1014.05 1013.97
1008.17 1007.82 1007.51 1007.39 1007.59 1008.18 1009.17 1010.46 1011.91 1013.31 1014.44 1015.14 1015.30 1014.93 1014.10 1012.97 1011.76 1010.69 1009.93 1009.58 1009.66 1010.12 1010.85 1011.67 1012.45 1013.06 1013.45 1013.59 1013.55 1013.41 1013.24 1013.14 1013.16 1013.29 1013.51 1013.77 1014.02 1014.20 1014.28 1014.27 1014.20 1014.11 1014.03 1014.02
1008.57 1008.33 1008.13 1008.10 1008.34 1008.91 1009.80 1010.93 1012.16 1013.31 1014.21 1014.70 1014.73 1014.27 1013.43 1012.34 1011.22 1010.25 1009.57 1009.27 1009.38 1009.83 1010.52 1011.29 1012.01 1012.57 1012.93 1013.08 1013.06 1012.95 1012.83 1012.77 1012.82 1012.98 1013.22 1013.50 1013.76 1013.97 1014.09 1014.12 1014.10 1014.07 1014.06 1014.10
1009.04 1008.94 1008.86 1008.91 1009.16 1009.66 1010.40 1011.32 1012.30 1013.18 1013.83 1014.13 1014.04 1013.56 1012.77 1011.80 1010.83 1009.99 1009.43 1009.20 1009.31 1009.71 1010.29 1010.94 1011.54 1012.00 1012.29 1012.41 1012.41 1012.34 1012.29 1012.30 1012.42 1012.65 1012.94 1013.26 1013.56 1013.80 1013.96 1014.04 1014.07 1014.08 1014.12 1014.22
1009.55 1009.59 1009.64 1009.76 1010.01 1010.43 1011.01 1011.70 1012.40 1013.02 1013.44 1013.58 1013.42 1012.96 1012.27 1011.47 1010.67 1010.01 1009.56 1009.38 1009.46 1009.76 1010.19 1010.66 1011.07 1011.39 1011.57 1011.64 1011.64 1011.63 1011.66 1011.78 1012.00 1012.31 1012.69 1013.07 1013.42 1013.70 1013.89 1014.02 1014.09 1014.15 1014.23 1014.36
1010.05 1010.24 1010.40 1010.60 1010.85 1011.20 1011.63 1012.11 1012.57 1012.96 1013.18 1013.21 1013.02 1012.61 1012.06 1011.43 1010.82 1010.32 1009.97 1009.81 1009.83 1009.98 1010.21 1010.46 1010.66 1010.79 1010.85 1010.86 1010.86 1010.90 1011.02 1011.25 1011.58 1012.00 1012.46 1012.91 1013.31 1013.64 1013.87 1014.03 1014.14 1014.24 1014.37 1014.54
1010.53 1010.85 1011.14 1011.41 1011.68 1011.98 1012.29 1012.60 1012.88 1013.08 1013.17 1013.12 1012.92 1012.60 1012.19 1011.73 1011.29 1010.92 1010.64 1010.47 1010.38 1010.37 1010.37 1010.38 1010.35 1010.28 1010.21 1010.15 1010.14 1010.23 1010.44 1010.78 1011.22 1011.73 1012.27 1012.79 1013.24 1013.60 1013.88 1014.07 1014.22 1014.37 1014.53 1014.74
1011.01 1011.44 1011.83 1012.18 1012.49 1012.76 1013.01 1013.20 1013.35 1013.43 1013.43 1013.34 1013.17 1012.93 1012.64 1012.33 1012.03 1011.75 1011.50 1011.29 1011.08 1010.88 1010.67 1010.43 1010.19 1009.94 1009.74 1009.62 1009.61 1009.74 1010.02 1010.44 1010.97 1011.55 1012.15 1012.70 1013.19 1013.58 1013.89 1014.12 1014.31 1014.50 1014.71 1014.96
1011.51 1012.02 1012.50 1012.92 1013.27 1013.55 1013.76 1013.90 1013.97 1013.98 1013.93 1013.83 1013.69 1013.52 1013.34 1013.14 1012.92 1012.70 1012.45 1012.17 1011.85 1011.48 1011.07 1010.63 1010.20 1009.82 1009.52 1009.35 1009.34 1009.50 1009.83 1010.30 1010.87 1011.49 1012.10 1012.68 1013.17 1013.58 1013.90 1014.17 1014.41 1014.65 1014.91 1015.20
1012.10 1012.65 1013.18 1013.65 1014.04 1014.34 1014.54 1014.66 1014.69 1014.66 1014.59 1014.49 1014.37 1014.25 1014.12 1013.98 1013.82 1013.61 1013.33 1012.99 1012.56 1012.06 1011.50 1010.93 1010.38 1009.91 1009.56 1009.36 1009.35 1009.53 1009.88 1010.37 1010.94 1011.56 1012.16 1012.71 1013.19 1013.59 1013.93 1014.22 1014.50 1014.80 1015.11 1015.46
1012.80 1013.35 1013.89 1014.39 1014.80 1015.12 1015.32 1015.42 1015.43 1015.38 1015.28 1015.17 1015.05 1014.94 1014.83 1014.70 1014.54 1014.32 1014.01 1013.61 1013.11 1012.53 1011.90 1011.26 1010.66 1010.16 1009.80 1009.62 1009.62 1009.81 1010.16 1010.63 1011.18 1011.75 1012.30 1012.80 1013.24 1013.62 1013.96 1014.28 1014.60 1014.94 1015.32 1015.71
1013.62 1014.15 1014.67 1015.16 1015.57 1015.87 1016.06 1016.14 1016.12 1016.03 1015.89 1015.74 1015.60 1015.45 1015.31 1015.16 1014.96 1014.70 1014.35 1013.91 1013.38 1012.78 1012.13 1011.50 1010.92 1010.46 1010.14 1010.00 1010.04 1010.24 1010.58 1011.02 1011.51 1012.01 1012.49 1012.92 1013.31 1013.66 1013.99 1014.33 1014.69 1015.08 1015.50 1015.94
1014.56 1015.03 1015.51 1015.96 1016.32 1016.59 1016.74 1016.77 1016.69 1016.54 1016.34 1016.12 1015.90 1015.69 1015.47 1015.24 1014.98 1014.67 1014.29 1013.82 1013.29 1012.71 1012.12 1011.55 1011.06 1010.69 1010.46 1010.39 1010.47 1010.70 1011.03 1011.43 1011.86 1012.29 1012.68 1013.05 1013.38 1013.70 1014.02 1014.37 1014.75 1015.18 1015.64 1016.12
1015.54 1015.96 1016.37 1016.75 1017.05 1017.25 1017.32 1017.27 1017.12 1016.88 1016.58 1016.26 1015.93 1015.60 1015.27 1014.94 1014.60 1014.22 1013.79 1013.32 1012.82 1012.30 1011.80 1011.35 1010.98 1010.74 1010.62 1010.65 1010.80 1011.06 1011.39 1011.76 1012.13 1012.49 1012.82 1013.12 1013.41 1013.70 1014.01 1014.37 1014.77 1015.23 1015.71 1016.21
1016.49 1016.85 1017.20 1017.50 1017.71 1017.82 1017.79 1017.65 1017.38 1017.03 1016.61 1016.16 1015.69 1015.22 1014.76 1014.30 1013.85 1013.40 1012.93 1012.46 1012.00 1011.56 1011.17 1010.86 1010.64 1010.54 1010.55 1010.69 1010.92 1011.22 1011.56 1011.92 1012.26 1012.57 1012.85 1013.12 1013.37 1013.65 1013.96 1014.32 1014.74 1015.20 1015.69 1016.19
1017.32 1017.64 1017.92 1018.13 1018.25 1018.25 1018.13 1017.87 1017.49 1017.01 1016.46 1015.86 1015.25 1014.63 1014.02 1013.44 1012.88 1012.34 1011.84 1011.37 1010.94 1010.58 1010.31 1010.13 1010.06 1010.09 1010.24 1010.48 1010.79 1011.15 1011.52 1011.88 1012.21 1012.50 1012.77 1013.02 1013.27 1013.54 1013.85 1014.21 1014.63 1015.09 1015.57 1016.05
1017.97 1018.24 1018.46 1018.60 1018.63 1018.53 1018.31 1017.94 1017.45 1016.86 1016.19 1015.46 1014.70 1013.95 1013.21 1012.50 1011.84 1011.23 1010.68 1010.21 1009.82 1009.53 1009.35 1009.29 1009.34 1009.51 1009.77 1010.10 1010.49 1010.90 1011.30 1011.68 1012.02 1012.32 1012.59 1012.85 1013.11 1013.39 1013.70 1014.07 1014.47 1014.90 1015.35 1015.79
1018.37 1018.61 1018.77 1018.84 1018.80 1018.63 1018.32 1017.88 1017.31 1016.63 1015.86 1015.04 1014.18 1013.32 1012.47 1011.67 1010.93 1010.26 1009.68 1009.20 1008.84 1008.61 1008.50 1008.53 1008.67 1008.93 1009.27 1009.68 1010.12 1010.57 1011.01 1011.41 1011.77 1012.09 1012.38 1012.66 1012.94 1013.23 1013.55 1013.90 1014.28 1014.68 1015.08 1015.46
Thickness
5853 5833 5820 5827 5833 5832 5826 5817 5811 5817 5831 5820 5808 5806 5813 5819 5816 5810 5806 5803 5801 5800 5802 5801 5799 5796 5792 5788 5786 5783 5780 5779 5777 5773 5771 5768 5766 5767 5767 5767 5766 5765 5764 5763
5826 5820 5840 5849 5846 5838 5829 5816 5813 5820 5831 5820 5807 5806 5815 5818 5816 5815 5810 5806 5804 5801 5800 5800 5799 5796 5793 5789 5787 5784 5782 5780 5778 5776 5773 5771 5769 5767 5767 5766 5766 5765 5763 5762
5817 5832 5853 5846 5837 5829 5824 5817 5815 5813 5820 5819 5805 5792 5801 5813 5819 5820 5818 5813 5810 5806 5802 5800 5799 5796 5794 5791 5789 5788 5784 5782 5780 5778 5775 5772 5769 5766 5764 5763 5763 5764 5763 5761
5825 5843 5846 5839 5833 5832 5814 5834 5832 5823 5803 5790 5798 5769 5791 5802 5808 5812 5812 5811 5810 5810 5807 5804 5801 5798 5796 5794 5793 5790 5786 5784 5781 5779 5774 5770 5765 5761 5762 5763 5762 5763 5762 5761
5821 5840 5839 5832 5838 5841 5831 5844 5835 5825 5806 5789 5791 5775 5782 5798 5795 5805 5812 5814 5815 5815 5812 5807 5806 5803 5801 5798 5795 5791 5788 5785 5782 5779 5775 5771 5766 5765 5764 5763 5762 5761 5760 5760
5830 5848 5848 5845 5852 5854 5849 5834 5822 5808 5790 5767 5782 5775 5774 5790 5800 5808 5814 5817 5817 5817 5815 5811 5809 5806 5802 5799 5796 5792 5787 5784 5782 5779 5775 5772 5769 5766 5763 5761 5758 5758 5758 5758
5815 5832 5848 5855 5839 5843 5835 5800 5772 5767 5755 5760 5783 5777 5780 5809 5817 5819 5817 5818 5819 5818 5814 5810 5806 5804 5801 5798 5795 5791 5787 5783 5781 5779 5776 5773 5771 5768 5764 5760 5758 5756 5755 5754
5790 5794 5831 5845 5837 5825 5823 5801 5768 5755 5750 5758 5776 5771 5790 5818 5825 5827 5824 5822 5820 5816 5814 5810 5808 5805 5802 5799 5795 5791 5786 5782 5780 5778 5776 5774 5771 5768 5765 5762 5759 5757 5755 5755
5788 5793 5833 5846 5851 5839 5819 5805 5801 5774 5764 5753 5760 5776 5794 5816 5816 5818 5818 5817 5816 5815 5814 5811 5808 5804 5801 5798 5795 5791 5786 5782 5780 5777 5774 5771 5769 5767 5764 5762 5760 5758 5756 5755
5806 5795 5817 5837 5845 5840 5832 5817 5788 5769 5750 5741 5753 5762 5769 5794 5801 5807 5809 5811 5813 5814 5812 5811 5808 5805 5802 5799 5795 5792 5787 5782 5778 5775 5773 5771 5768 5766 5763 5760 5758 5756 5754 5753
5810 5790 5800 5816 5816 5814 5819 5810 5788 5768 5763 5744 5737 5755 5800 5803 5807 5807 5809 5811 5811 5811 5811 5810 5807 5805 5802 5798 5794 5790 5786 5782 5778 5775 5772 5769 5766 5764 5761 5758 5756 5754 5752 5750
5805 5786 5778 5797 5822 5833 5823 5811 5791 5770 5762 5755 5747 5761 5816 5813 5813 5811 5809 5810 5811 5811 5810 5808 5806 5803 5799 5796 5793 5789 5786 5782 5779 5775 5772 5768 5764 5761 5757 5755 5753 5751 5749 5747
5801 5778 5760 5769 5786 5807 5809 5811 5802 5783 5765 5752 5746 5766 5810 5809 5808 5808 5806 5806 5808 5807 5805 5803 5800 5798 5797 5794 5791 5788 5785 5781 5778 5774 5770 5766 5761 5758 5755 5753 5751 5749 5746 5743
5806 5774 5763 5757 5767 5786 5792 5802 5804 5783 5761 5756 5761 5773 5791 5799 5800 5801 5802 5803 5805 5803 5802 5800 5796 5795 5794 5792 5789 5786 5783 5780 5776 5772 5767 5762 5758 5755 5752 5750 5748 5746 5743 5739
5792 5769 5776 5781 5792 5796 5795 5797 5800 5791 5781 5769 5771 5776 5787 5799 5801 5801 5801 5800 5800 5799 5799 5798 5796 5792 5790 5789 5787 5784 5780 5777 5774 5768 5763 5759 5756 5752 5749 5746 5744 5742 5739 5736
5776 5767 5770 5772 5787 5790 5788 5793 5796 5794 5790 5783 5782 5779 5795 5801 5802 5799 5797 5796 5794 5794 5796 5796 5794 5790 5788 5787 5784 5781 5778 5774 5770 5764 5759 5756 5752 5748 5745 5742 5740 5737 5734 5731
5759 5756 5748 5748 5769 5774 5761 5781 5787 5786 5789 5784 5774 5781 5791 5789 5791 5792 5794 5794 5792 5793 5793 5791 5790 5788 5787 5786 5784 5778 5775 5771 5765 5760 5755 5751 5747 5744 5741 5739 5735 5732 5729 5726
5753 5743 5733 5735 5747 5734 5758 5788 5792 5784 5782 5785 5784 5787 5790 5790 5791 5793 5794 5792 5790 5791 5789 5788 5788 5787 5786 5784 5781 5776 5771 5766 5760 5755 5751 5747 5744 5740 5737 5734 5731 5727 5724 5721
5757 5742 5726 5719 5721 5733 5759 5778 5781 5772 5763 5778 5780 5784 5787 5790 5786 5783 5789 5790 5789 5789 5788 5787 5786 5785 5783 5779 5775 5771 5765 5760 5755 5750 5746 5743 5740 5736 5732 5729 5726 5722 5719 5716
5746 5740 5723 5715 5715 5714 5742 5774 5785 5773 5748 5772 5776 5775 5777 5777 5759 5766 5782 5783 5783 5783 5783 5781 5781 5779 5776 5773 5769 5762 5758 5754 5750 5746 5743 5739 5736 5732 5728 5724 5721 5718 5715 5711
5720 5718 5713 5708 5708 5719 5752 5770 5773 5739 5739 5765 5769 5769 5769 5765 5765 5773 5777 5776 5776 5776 5776 5776 5774 5771 5769 5766 5763 5754 5751 5748 5747 5744 5740 5735 5732 5728 5724 5721 5717 5713 5709 5705
5706 5702 5702 5699 5697 5708 5749 5755 5745 5742 5757 5761 5762 5763 5763 5764 5766 5767 5767 5767 5767 5765 5765 5765 5763 5761 5759 5757 5754 5748 5745 5745 5742 5738 5733 5730 5727 5724 5721 5715 5711 5706 5702 5697
5703 5704 5701 5701 5704 5724 5739 5743 5747 5749 5749 5754 5756 5759 5760 5758 5757 5757 5757 5758 5756 5756 5755 5754 5753 5750 5748 5748 5746 5741 5739 5738 5734 5730 5727 5724 5721 5717 5714 5709 5703 5698 5695 5690
5700 5707 5701 5699 5709 5721 5730 5736 5740 5743 5744 5749 5752 5754 5754 5750 5750 5749 5748 5747 5747 5748 5746 5745 5743 5741 5739 5739 5739 5736 5734 5732 5727 5722 5719 5717 5713 5709 5705 5701 5697 5692 5688 5684
5690 5694 5689 5690 5702 5712 5720 5725 5730 5733 5738 5741 5745 5747 5747 5745 5743 5742 5741 5740 5740 5740 5738 5738 5736 5733 5732 5731 5731 5730 5728 5725 5720 5716 5713 5709 5706 5702 5697 5693 5689 5686 5684 5681
5684 5684 5681 5682 5695 5696 5704 5717 5722 5723 5726 5730 5733 5735 5738 5740 5737 5736 5734 5734 5733 5733 5732 5731 5729 5727 5726 5725 5723 5722 5721 5718 5713 5709 5706 5702 5698 5694 5690 5685 5680 5678 5677 5675